Home   Weather   Groningen   Past weeks
Flag for Netherlands

Past Weather in Groningen, Netherlands — Yesterday and Last 2 Weeks

Now
46 °F

Fog.


Feels Like: 44 °F
Forecast: 58 / 51 °F
Wind: 5 mph from Southwest

Location: Groningen Eelde Airport

Current Time: Oct 20, 2019 at 8:24:29 am

Latest Report: Oct 20, 2019 at 7:55 am


Visibility: 3 mi

Pressure: 29.74 "Hg

Humidity: 100%

Dew Point: 46 °F

Location of GroningenLocation

Past Weather in Groningen — Graph

°F

Groningen Temperature Yesterday

Maximum temperature yesterday: 57 °F (at 3:55 pm)
Minimum temperature yesterday: 50 °F (at 12:55 am)
Average temperature yesterday: 53 °F

High & Low Weather Summary for the Past Weeks

 TemperatureHumidityPressure
High68 °F (Oct 13, 4:25 pm)100% (Oct 5, 6:25 am)30.12 "Hg (Oct 5, 6:25 am)
Low36 °F (Oct 5, 7:25 am)59% (Oct 7, 2:25 pm)29.50 "Hg (Oct 18, 1:25 pm)
Average54 °F88%29.76 "Hg
* Reported Oct 5 6:25 am — Oct 20 6:55 am, Groningen. Weather by CustomWeather, © 2019

Note: Actual official high and low records may vary slightly from our data, if they occured in-between our weather recording intervals... More about our weather records

Advertising

Groningen Weather History for the Previous 24 Hours

Scroll right to see more
 ConditionsComfort  
Time TempWeatherWind HumidityBarometerVisibility
6:55 am
Sun, Oct 20
48 °FClear.3 mph94%29.71 "Hg4 mi
6:25 am48 °FClear.6 mph100%29.71 "Hg5 mi
5:55 am48 °FClear.7 mph100%29.71 "Hg6 mi
5:25 am50 °FClear.7 mph94%29.71 "Hg6 mi
4:55 am50 °FClear.7 mph94%29.71 "HgN/A
4:25 am50 °FClear.8 mph94%29.71 "HgN/A
3:55 am50 °FClear.8 mph94%29.71 "HgN/A
3:25 am50 °FClear.7 mph94%29.71 "HgN/A
2:55 am50 °FClear.7 mph94%29.71 "HgN/A
2:25 am50 °FClear.9 mph94%29.71 "HgN/A
1:55 am50 °FClear.9 mph94%29.68 "HgN/A
1:25 am50 °FClear.8 mph94%29.68 "HgN/A
12:55 am50 °FClear.7 mph94%29.68 "HgN/A
12:25 am50 °FClear.8 mph94%29.68 "HgN/A
11:55 pm
Sat, Oct 19
52 °FClear.8 mph88%29.68 "HgN/A
11:25 pm52 °FClear.8 mph88%29.68 "HgN/A
10:55 pm52 °FClear.7 mph88%29.65 "HgN/A
10:25 pm52 °FClear.7 mph88%29.65 "HgN/A
9:55 pm52 °FClear.8 mph88%29.65 "HgN/A
9:25 pm52 °FClear.8 mph88%29.65 "HgN/A
8:55 pm52 °FClear.8 mph88%29.62 "HgN/A
8:25 pm52 °FClear.8 mph88%29.62 "HgN/A
7:55 pm54 °FClear.7 mph82%29.62 "HgN/A
7:25 pm54 °FClear.7 mph82%29.62 "HgN/A
6:55 pm54 °FClear.8 mph82%29.62 "HgN/A
6:25 pm54 °FClear.9 mph82%29.62 "HgN/A
5:55 pm55 °FClear.10 mph82%29.62 "HgN/A
5:25 pm57 °FClear.10 mph77%29.59 "HgN/A
4:55 pm57 °FPassing clouds.9 mph77%29.59 "HgN/A
4:25 pm57 °FClear.10 mph77%29.59 "HgN/A
3:55 pm57 °FClear.10 mph77%29.59 "HgN/A
3:25 pm55 °FPassing clouds.10 mph82%29.59 "HgN/A
2:55 pm55 °FPassing clouds.10 mph82%29.59 "HgN/A
2:25 pm55 °FScattered clouds.9 mph82%29.59 "HgN/A
1:55 pm55 °FPassing clouds.10 mph82%29.59 "HgN/A
1:25 pm55 °FLight rain. Partly sunny.12 mph88%29.59 "HgN/A
12:55 pm55 °FLight rain. Partly sunny.9 mph88%29.59 "HgN/A
12:25 pm55 °FMostly cloudy.13 mph82%29.62 "HgN/A
11:55 am55 °FMostly cloudy.14 mph82%29.62 "HgN/A
11:25 am55 °FMore clouds than sun.12 mph82%29.62 "HgN/A
10:55 am54 °FLight rain. Scattered clouds.12 mph88%29.62 "HgN/A
10:25 am54 °FPartly sunny.14 mph88%29.59 "HgN/A
9:55 am54 °FPartly sunny.13 mph88%29.59 "HgN/A
9:25 am52 °FPartly sunny.12 mph88%29.59 "HgN/A
8:55 am52 °FPassing clouds.12 mph88%29.59 "HgN/A
8:25 am52 °FPassing clouds.13 mph88%29.59 "HgN/A
Weather by CustomWeather, © 2019

See weather overview